Regional Weather Roundup
Issued by NWS

Home | Current Version | Previous Version | Graphics & Text | Print | Product List | Glossary On
Versions: 1 2 3 4 5 6 7 8 9 10 11 12 13 14 15 16 17 18 19 20 21 22 23 24 25 26 27 28 29 30 31 32 33 34 35 36 37 38 39 40 41 42 43 44 45 46 47 48 49 50
000
ASUS45 KPSR 241810
RWRAZ

ARIZONA HOURLY REGIONAL WEATHER ROUNDUP
NATIONAL WEATHER SERVICE PHOENIX AZ
1100 AM MST FRI FEB 24 2017

NOTE: FAIR INDICATES FEW OR NO CLOUDS BELOW 12,000 FEET WITH NO
SIGNIFICANT WEATHER AND/OR OBSTRUCTIONS TO VISIBILITY.

AZZ001>003-036-241900-
NORTHWEST ARIZONA

CITY           SKY/WX    TMP DP  RH WIND       PRES   REMARKS
BULLHEAD CITY  SUNNY     55  18  22 MISG      30.18S
KINGMAN        SUNNY     45  -5  12 MISG      30.15R
6HR MIN TEMP:  24; 6HR MAX TEMP:  45;

$$

AZZ004>008-015-016-018-241900-
NORTH CENTRAL ARIZONA

CITY           SKY/WX    TMP DP  RH WIND       PRES   REMARKS
GRAND CANYON   SUNNY     30   4  33 NW9G17    30.04R WCI  22
6HR MIN TEMP:  12; 6HR MAX TEMP:  30;

WILLIAMS       SUNNY     30   3  31 NW14G22   30.06S WCI  20
PRESCOTT       SUNNY     39   7  26 VRB6      30.11R WCI  35
6HR MIN TEMP:  20; 6HR MAX TEMP:  39;

FLAGSTAFF      SUNNY     30   0  27 W13G20    30.02R WCI  20
6HR MIN TEMP:  14; 6HR MAX TEMP:  31;

PAYSON         SUNNY     39  10  30 VRB7G13   30.12R WCI  34
PAGE           SUNNY     39  -2  17 W9G21     30.04R WCI  33
6HR MIN TEMP:  32; 6HR MAX TEMP:  39;

$$

AZZ009>014-017-241900-
NORTHEAST ARIZONA

CITY           SKY/WX    TMP DP  RH WIND       PRES   REMARKS
WINSLOW        SUNNY     41   3  20 CALM      30.07S
6HR MIN TEMP:  19; 6HR MAX TEMP:  42;

SAINT JOHNS    SUNNY     39   4  23 W16       30.03S WCI  30
6HR MIN TEMP:  23; 6HR MAX TEMP:  39;

WINDOW ROCK    SUNNY     34   2  25 W15G22    29.98S WCI  24
6HR MIN TEMP:  19; 6HR MAX TEMP:  34;

SHOW LOW       SUNNY     32   9  37 W9G16     30.06R WCI  24
$$

AZZ023-241900-
GREATER PHOENIX AREA

CITY           SKY/WX    TMP DP  RH WIND       PRES   REMARKS
PHOENIX        MOSUNNY   53  26  35 NW5       30.14R
6HR MIN TEMP:  43; 6HR MAX TEMP:  54;

BUCKEYE        SUNNY     54  27  35 NW5       30.16R
GLENDALE       MOSUNNY   54  30  40 VRB3      30.16R
LUKE AFB       SUNNY     55  26  32 CALM      30.14R
6HR MIN TEMP:  38; 6HR MAX TEMP:  55; 6HR PCP: TRACE;

DEER VALLEY    SUNNY     51  27  39 VRB5      30.13R
6HR MIN TEMP:  37; 6HR MAX TEMP:  52;

SCOTTSDALE     SUNNY     53  25  33 VRB5      30.15R
6HR MIN TEMP:  40; 6HR MAX TEMP:  53;

MESA-FALCON    SUNNY    N/A N/A N/A SW7       30.12R
CHANDLER       SUNNY     55  23  28 CALM      30.15R
$$

AZZ027-028-241900-
SOUTHWEST MARICOPA COUNTY AND PINAL COUNTY

CITY           SKY/WX    TMP DP  RH WIND       PRES   REMARKS
CASA GRANDE    NOT AVBL
GILA BEND      SUNNY     59  21  23 NW5       30.15R
$$

AZZ503-504-507>509-241900-
SOUTHEAST ARIZONA

CITY           SKY/WX    TMP DP  RH WIND       PRES   REMARKS
TUCSON         SUNNY     55  18  23 N7        30.15R
6HR MIN TEMP:  35; 6HR MAX TEMP:  55;

DAVIS-MONTHAN  SUNNY     52  18  25 W6        30.13R
6HR MIN TEMP:  33; 6HR MAX TEMP:  52;

RYAN FIELD     SUNNY     54  19  26 W5        30.15R
NOGALES        SUNNY     52  19  27 W6        30.11R
6HR MIN TEMP:  29; 6HR MAX TEMP:  52;

SIERRA VISTA   SUNNY     49  11  21 NW7       30.12R
6HR MIN TEMP:  30; 6HR MAX TEMP:  49;

DOUGLAS        SUNNY     50  15  24 NE3       30.11S
6HR MIN TEMP:  26; 6HR MAX TEMP:  50;

SAFFORD        SUNNY     52  13  21 NW16      30.09S
$$

AZZ020-021-025-026-031-241900-
SOUTHWEST ARIZONA

CITY           SKY/WX    TMP DP  RH WIND       PRES   REMARKS
YUMA           MOSUNNY   59  24  26 N10       30.17R
6HR MIN TEMP:  45; 6HR MAX TEMP:  59;

$$

CAZ031-033-041-043-047-048-061-241900-
SOUTHERN CALIFORNIA

CITY           SKY/WX    TMP DP  RH WIND       PRES   REMARKS
DOWNTOWN L.A.  SUNNY     56  30  37 CALM      30.19R
6HR MIN TEMP:  44; 6HR MAX TEMP:  57;

L.A. AIRPORT   MOSUNNY   56  28  34 N7        30.19S
6HR MIN TEMP:  44; 6HR MAX TEMP:  56;

SAN DIEGO      MOSUNNY   58  38  47 VRB3      30.20S
6HR MIN TEMP:  47; 6HR MAX TEMP:  58;

BURBANK        SUNNY     52  26  36 CALM      30.18S
6HR MIN TEMP:  37; 6HR MAX TEMP:  52; 6HR PCP: TRACE;

ONTARIO        MOSUNNY   50  30  46 VRB3      30.18R
6HR MIN TEMP:  35; 6HR MAX TEMP:  50;

RIVERSIDE      MOSUNNY   53  29  39 E6        30.19R
6HR MIN TEMP:  36; 6HR MAX TEMP:  53;

PALM SPRINGS   SUNNY     59  35  40 N5        30.20S
6HR MIN TEMP:  47; 6HR MAX TEMP:  59;

EL CENTRO NAS  MOSUNNY   60  27  28 N5        30.19S
6HR MIN TEMP:  40; 6HR MAX TEMP:  61;

IMPERIAL       SUNNY     60  28  29 N7        30.17S
6HR MIN TEMP:  42; 6HR MAX TEMP:  60;

BLYTHE         SUNNY     56  25  30 N7        30.18S
6HR MIN TEMP:  43; 6HR MAX TEMP:  56;

NEEDLES        SUNNY     57  19  22 NE8       30.18S
6HR MIN TEMP:  41; 6HR MAX TEMP:  57;

$$

NVZ020-UTZ003-241900-
SOUTHERN NEVADA-UTAH

CITY           SKY/WX    TMP DP  RH WIND       PRES   REMARKS
LAS VEGAS      MOSUNNY   48  11  22 NE12G21   30.16S
6HR MIN TEMP:  38; 6HR MAX TEMP:  49;

SALT LAKE CITY PTSUNNY   29  13  51 NW13      30.08R WCI  19
6HR MIN TEMP:  25; 6HR MAX TEMP:  29; 6HR PCP:  0.02;

$$

NMZ009-TXZ055-241900-
NEW MEXICO-WEST TEXAS

CITY           SKY/WX    TMP DP  RH WIND       PRES   REMARKS
ALBUQUERQUE    MOSUNNY   40   1  19 W20G29    29.99R WCI  30
6HR MIN TEMP:  30; 6HR MAX TEMP:  40;

EL PASO        SUNNY     54   6  14 W7        30.03F
6HR MIN TEMP:  43; 6HR MAX TEMP:  55;

$$


........................KEY........................
SKY/WX - SKY CONDITION/WEATHER
TMP    - TEMPERATURE IN FAHRENHEIT
DP     - DEW POINT IN FAHRENHEIT
RH     - RELATIVE HUMIDITY IN PERCENT
WIND   - DIRECTION AND SPEED IN MILES PER HOUR (MPH)
VRB    - VARIABLE WIND DIRECTION
PRES   - MEAN SEA LEVEL PRESSURE IN INCHES OF MERCURY
         F - FALLING PRESSURE   R - RISING PRESSURE
         S - STEADY PRESSURE
VSB    - VISIBILITY IN MILES
HX     - HEAT INDEX IN FAHRENHEIT
WCI    - WIND CHILL INDEX IN FAHRENHEIT
TC     - TEMPERATURE IN CELSIUS WHICH IS ALSO KNOWN AS
         TEMPERATURE IN CENTIGRADE
AFB    - AIR FORCE BASE
         LUKE AFB IS LUKE AIR FORCE BASE
         DAVIS-MONTHAN IS DAVIS-MONTHAN AIR FORCE BASE
NAS    - NAVAL AIR STATION
         EL CENTRO NAS IS EL CENTRO NAVAL AIR STATION
N/A    - NOT AVAILABLE




USA.gov is the U.S. government's official web portal to all federal, state and local government web resources and services.